| time (UTC) | temp F | wind direction | speed MPH | gust MPH | rain 1hr in | rain 24hr in | rain mn in | humidity % | barometer mb |
| 20260906100602 | 68 | 180 | 0.0 | 0.0 | 0.00 | 0.02 | 0.00 | 89 | 1014.1 |
| 20260906100103 | 68 | 113 | 0.0 | 0.0 | 0.00 | 0.02 | 0.00 | 89 | 1014.1 |
| 20260906095604 | 68 | 131 | 0.0 | 0.0 | 0.00 | 0.02 | 0.00 | 89 | 1014.1 |
| 20260906095103 | 68 | 180 | 0.0 | 0.0 | 0.00 | 0.02 | 0.00 | 89 | 1014.1 |
| 20260906094103 | 68 | 112 | 0.0 | 0.0 | 0.00 | 0.02 | 0.00 | 89 | 1014.0 |
| 20260906093603 | 68 | 135 | 0.0 | 0.0 | 0.00 | 0.02 | 0.00 | 89 | 1014.0 |
| 20260906092603 | 68 | 138 | 0.0 | 0.0 | 0.00 | 0.02 | 0.00 | 89 | 1013.9 |
| 20260906092103 | 68 | 201 | 0.0 | 0.0 | 0.00 | 0.02 | 0.00 | 89 | 1013.9 |
| 20260906091603 | 68 | 202 | 0.0 | 0.0 | 0.00 | 0.02 | 0.00 | 89 | 1014.3 |
| 20260906091103 | 68 | 180 | 0.0 | 0.0 | 0.00 | 0.02 | 0.00 | 89 | 1014.3 |
| 20260906090603 | 68 | 213 | 0.0 | 0.0 | 0.00 | 0.02 | 0.00 | 89 | 1014.0 |
| 20260906085602 | 68 | 180 | 0.0 | 0.0 | 0.00 | 0.02 | 0.00 | 89 | 1014.0 |
| 20260906085103 | 68 | 180 | 0.0 | 0.0 | 0.00 | 0.02 | 0.00 | 89 | 1013.9 |
| 20260906084604 | 68 | 112 | 0.0 | 0.0 | 0.00 | 0.02 | 0.00 | 89 | 1013.9 |
| 20260906084103 | 68 | 90 | 0.0 | 0.0 | 0.00 | 0.02 | 0.00 | 89 | 1013.7 |
| 20260906083604 | 68 | 47 | 0.0 | 0.0 | 0.00 | 0.02 | 0.00 | 89 | 1013.7 |
| 20260906083103 | 68 | 90 | 0.0 | 0.0 | 0.00 | 0.02 | 0.00 | 89 | 1013.7 |
| 20260906082603 | 68 | 83 | 0.0 | 0.0 | 0.00 | 0.02 | 0.00 | 89 | 1013.9 |
| 20260906080104 | 69 | 198 | 0.0 | 0.0 | 0.00 | 0.02 | 0.00 | 89 | 1013.8 |
| 20260906074103 | 69 | 112 | 0.0 | 0.0 | 0.00 | 0.02 | 0.00 | 89 | 1013.8 |
| 20260906073604 | 69 | 107 | 0.0 | 0.0 | 0.00 | 0.02 | 0.00 | 89 | 1013.8 |
| 20260906073103 | 69 | 45 | 0.0 | 0.0 | 0.00 | 0.02 | 0.00 | 89 | 1013.7 |
| 20260906072603 | 69 | 38 | 0.0 | 0.0 | 0.00 | 0.02 | 0.00 | 89 | 1013.6 |
| 20260906072103 | 69 | 180 | 0.0 | 0.0 | 0.00 | 0.02 | 0.00 | 89 | 1013.6 |
| 20260906071103 | 69 | 158 | 0.0 | 0.0 | 0.00 | 0.02 | 0.00 | 89 | 1013.8 |
| 20260906070603 | 69 | 135 | 0.0 | 0.0 | 0.00 | 0.02 | 0.00 | 89 | 1013.9 |
| 20260906065603 | 69 | 204 | 0.0 | 0.0 | 0.00 | 0.02 | 0.00 | 89 | 1013.9 |
| 20260906065103 | 69 | 287 | 1.0 | 1.0 | 0.00 | 0.02 | 0.00 | 89 | 1014.1 |
| 20260906064603 | 69 | 112 | 0.0 | 0.0 | 0.00 | 0.02 | 0.00 | 89 | 1014.1 |
| 20260906063603 | 69 | 89 | 0.0 | 0.0 | 0.00 | 0.02 | 0.00 | 89 | 1014.1 |
| 20260906063103 | 69 | 90 | 0.0 | 0.0 | 0.00 | 0.02 | 0.00 | 89 | 1014.1 |
| 20260906062603 | 69 | 158 | 0.0 | 0.0 | 0.00 | 0.02 | 0.00 | 89 | 1014.1 |
| 20260906062104 | 69 | 180 | 0.0 | 0.0 | 0.00 | 0.02 | 0.00 | 89 | 1014.1 |
| 20260906061604 | 69 | 112 | 0.0 | 0.0 | 0.00 | 0.02 | 0.00 | 89 | 1014.0 |
| 20260906061102 | 69 | 167 | 0.0 | 0.0 | 0.00 | 0.02 | 0.00 | 89 | 1014.0 |
| 20260906060604 | 69 | 161 | 0.0 | 0.0 | 0.00 | 0.02 | 0.00 | 89 | 1014.1 |
| 20260906060104 | 69 | 129 | 0.0 | 0.0 | 0.00 | 0.02 | 0.00 | 89 | 1014.1 |
| 20260906055603 | 69 | 141 | 0.0 | 0.0 | 0.00 | 0.02 | 0.00 | 89 | 1014.1 |
| 20260906055103 | 69 | 167 | 0.0 | 0.0 | 0.00 | 0.02 | 0.00 | 89 | 1014.4 |
| 20260906054603 | 69 | 164 | 0.0 | 0.0 | 0.00 | 0.02 | 0.00 | 89 | 1014.4 |
| 20260906054104 | 69 | 114 | 0.0 | 0.0 | 0.00 | 0.02 | 0.00 | 89 | 1014.5 |
| 20260906053603 | 69 | 107 | 0.0 | 0.0 | 0.00 | 0.02 | 0.00 | 89 | 1014.5 |
| 20260906053103 | 69 | 180 | 0.0 | 0.0 | 0.00 | 0.02 | 0.00 | 89 | 1014.5 |
| 20260906052603 | 69 | 111 | 0.0 | 0.0 | 0.00 | 0.02 | 0.00 | 89 | 1014.7 |
| 20260906052103 | 69 | 112 | 0.0 | 0.0 | 0.00 | 0.02 | 0.00 | 89 | 1014.7 |
| 20260906051104 | 69 | 139 | 0.0 | 0.0 | 0.00 | 0.02 | 0.00 | 89 | 1014.6 |
| 20260906050603 | 69 | 158 | 0.0 | 0.0 | 0.00 | 0.02 | 0.00 | 89 | 1014.6 |
| 20260906050104 | 69 | 148 | 0.0 | 0.0 | 0.00 | 0.02 | 0.00 | 89 | 1014.6 |
| 20260906045604 | 69 | 94 | 0.0 | 0.0 | 0.00 | 0.02 | 0.00 | 89 | 1014.6 |
| 20260906045105 | 69 | 135 | 0.0 | 0.0 | 0.00 | 0.02 | 0.00 | 89 | 1014.7 |
| 20260906044603 | 69 | 125 | 0.0 | 0.0 | 0.00 | 0.02 | 0.00 | 89 | 1014.7 |
| 20260906044103 | 69 | 180 | 0.0 | 0.0 | 0.00 | 0.02 | 0.00 | 89 | 1014.7 |
| 20260906043604 | 69 | 116 | 0.0 | 0.0 | 0.00 | 0.02 | 0.00 | 89 | 1014.7 |
| 20260906043103 | 69 | 140 | 0.0 | 0.0 | 0.00 | 0.02 | 0.00 | 89 | 1014.8 |
| 20260906042605 | 69 | 90 | 0.0 | 0.0 | 0.00 | 0.02 | 0.00 | 89 | 1015.0 |
| 20260906042104 | 69 | 45 | 0.0 | 0.0 | 0.00 | 0.02 | 0.00 | 89 | 1015.0 |
| 20260906041603 | 69 | 215 | 0.0 | 0.0 | 0.00 | 0.02 | 0.00 | 89 | 1014.8 |
| 20260906040602 | 70 | 158 | 0.0 | 0.0 | 0.00 | 0.02 | 0.00 | 89 | 1014.8 |
| 20260906040105 | 70 | 328 | 0.0 | 0.0 | 0.00 | 0.02 | 0.00 | 89 | 1014.8 |
| 20260906035104 | 70 | 346 | 0.0 | 0.0 | 0.00 | 0.02 | 0.02 | 89 | 1014.6 |
| 20260906034603 | 70 | 55 | 0.0 | 0.0 | 0.00 | 0.02 | 0.02 | 89 | 1014.6 |
| 20260906034103 | 70 | 170 | 0.0 | 0.0 | 0.00 | 0.02 | 0.02 | 89 | 1014.7 |
| 20260906033103 | 70 | 180 | 0.0 | 0.0 | 0.00 | 0.02 | 0.02 | 89 | 1014.7 |
| 20260906032603 | 70 | 180 | 0.0 | 0.0 | 0.00 | 0.02 | 0.02 | 89 | 1014.8 |
| 20260906032103 | 70 | 171 | 0.0 | 0.0 | 0.00 | 0.02 | 0.02 | 89 | 1014.8 |
| 20260906030603 | 70 | 139 | 0.0 | 0.0 | 0.00 | 0.02 | 0.02 | 89 | 1014.9 |
| 20260906025104 | 70 | 126 | 0.0 | 0.0 | 0.00 | 0.02 | 0.02 | 89 | 1014.8 |
| 20260906024604 | 70 | 163 | 0.0 | 0.0 | 0.00 | 0.02 | 0.02 | 89 | 1014.8 |
| 20260906024104 | 70 | 136 | 0.0 | 0.0 | 0.00 | 0.02 | 0.02 | 89 | 1014.7 |
| 20260906023604 | 71 | 149 | 0.0 | 0.0 | 0.00 | 0.02 | 0.02 | 89 | 1014.7 |
| 20260906023104 | 71 | 180 | 0.0 | 0.0 | 0.00 | 0.02 | 0.02 | 89 | 1014.7 |
| 20260906022604 | 71 | 169 | 0.0 | 0.0 | 0.00 | 0.02 | 0.02 | 89 | 1014.4 |
| 20260906022104 | 71 | 158 | 0.0 | 0.0 | 0.00 | 0.02 | 0.02 | 89 | 1014.4 |
| 20260906021603 | 71 | 112 | 0.0 | 0.0 | 0.00 | 0.02 | 0.02 | 89 | 1014.5 |
| 20260906021103 | 71 | 146 | 0.0 | 0.0 | 0.00 | 0.02 | 0.02 | 89 | 1014.5 |
| 20260906020604 | 71 | 112 | 0.0 | 0.0 | 0.00 | 0.02 | 0.02 | 89 | 1014.2 |
| 20260906015104 | 72 | 160 | 0.0 | 0.0 | 0.00 | 0.02 | 0.02 | 89 | 1014.1 |
| 20260906014604 | 72 | 180 | 0.0 | 0.0 | 0.00 | 0.02 | 0.02 | 89 | 1014.1 |
| 20260906014103 | 72 | 158 | 0.0 | 0.0 | 0.00 | 0.02 | 0.02 | 89 | 1014.1 |
| 20260906013603 | 72 | 132 | 0.0 | 0.0 | 0.00 | 0.02 | 0.02 | 89 | 1014.1 |
| 20260906012603 | 72 | 140 | 0.0 | 0.0 | 0.00 | 0.02 | 0.02 | 89 | 1014.0 |
| 20260906012103 | 72 | 115 | 0.0 | 0.0 | 0.00 | 0.02 | 0.02 | 89 | 1014.0 |
| 20260906011604 | 72 | 145 | 0.0 | 0.0 | 0.00 | 0.02 | 0.02 | 89 | 1013.9 |
| 20260906011104 | 72 | 158 | 0.0 | 0.0 | 0.00 | 0.02 | 0.02 | 89 | 1013.9 |
| 20260906005603 | 72 | 170 | 0.0 | 0.0 | 0.00 | 0.02 | 0.02 | 89 | 1013.9 |
| 20260906004604 | 72 | 140 | 0.0 | 0.0 | 0.00 | 0.02 | 0.02 | 89 | 1013.8 |
| 20260906004103 | 72 | 180 | 0.0 | 0.0 | 0.00 | 0.02 | 0.02 | 89 | 1013.6 |
| 20260906003603 | 73 | 103 | 0.0 | 0.0 | 0.00 | 0.02 | 0.02 | 89 | 1013.6 |
| 20260906003103 | 73 | 170 | 0.0 | 0.0 | 0.00 | 0.02 | 0.02 | 89 | 1013.6 |
| 20260906002605 | 73 | 173 | 0.0 | 0.0 | 0.00 | 0.02 | 0.02 | 89 | 1013.8 |
| 20260906001604 | 73 | 68 | 0.0 | 0.0 | 0.00 | 0.02 | 0.02 | 89 | 1013.8 |
| 20260906001103 | 73 | 180 | 0.0 | 0.0 | 0.00 | 0.02 | 0.02 | 89 | 1013.8 |
| 20260906000603 | 73 | 158 | 0.0 | 0.0 | 0.00 | 0.02 | 0.02 | 89 | 1013.6 |
| 20260906000104 | 73 | 265 | 0.0 | 0.0 | 0.00 | 0.02 | 0.02 | 89 | 1013.6 |
| 20260905235603 | 73 | 270 | 0.0 | 0.0 | 0.00 | 0.02 | 0.02 | 89 | 1013.6 |
| 20260905235103 | 73 | 195 | 0.0 | 0.0 | 0.00 | 0.02 | 0.02 | 89 | 1013.4 |
| 20260905234603 | 74 | 112 | 0.0 | 0.0 | 0.00 | 0.02 | 0.02 | 89 | 1013.4 |
| 20260905233604 | 74 | 109 | 0.0 | 0.0 | 0.00 | 0.02 | 0.02 | 89 | 1013.6 |
| 20260905232603 | 74 | 233 | 0.0 | 0.0 | 0.00 | 0.02 | 0.02 | 89 | 1013.5 |
| 20260905231603 | 74 | 108 | 0.0 | 0.0 | 0.00 | 0.02 | 0.02 | 89 | 1013.5 |
| 20260905231104 | 74 | 112 | 0.0 | 0.0 | 0.00 | 0.02 | 0.02 | 89 | 1013.5 |
| 20260905230603 | 75 | 37 | 0.0 | 0.0 | 0.00 | 0.02 | 0.02 | 89 | 1013.5 |
| 20260905230104 | 75 | 112 | 0.0 | 0.0 | 0.00 | 0.02 | 0.02 | 89 | 1013.5 |
| 20260905225603 | 75 | 158 | 0.0 | 0.0 | 0.00 | 0.02 | 0.02 | 89 | 1013.5 |
| 20260905225103 | 75 | 22 | 0.0 | 0.0 | 0.00 | 0.02 | 0.02 | 89 | 1013.2 |
| 20260905224603 | 75 | 180 | 0.0 | 0.0 | 0.00 | 0.02 | 0.02 | 89 | 1013.2 |
| 20260905224104 | 75 | 112 | 0.0 | 0.0 | 0.00 | 0.02 | 0.02 | 89 | 1013.7 |
| 20260905223603 | 75 | 112 | 0.0 | 0.0 | 0.00 | 0.02 | 0.02 | 88 | 1013.7 |
| 20260905222103 | 75 | 177 | 0.0 | 0.0 | 0.00 | 0.02 | 0.02 | 88 | 1013.9 |
| 20260905221604 | 75 | 180 | 0.0 | 0.0 | 0.00 | 0.02 | 0.02 | 88 | 1013.9 |
| 20260905220603 | 75 | 90 | 0.0 | 0.0 | 0.00 | 0.02 | 0.02 | 88 | 1013.6 |
| 20260905220103 | 75 | 112 | 0.0 | 0.0 | 0.00 | 0.02 | 0.02 | 88 | 1013.6 |
| 20260905215103 | 75 | 180 | 1.0 | 1.0 | 0.00 | 0.02 | 0.02 | 88 | 1013.9 |
| 20260905214603 | 75 | 180 | 0.0 | 0.0 | 0.00 | 0.02 | 0.02 | 88 | 1013.9 |
| 20260905214104 | 75 | 180 | 0.0 | 0.0 | 0.00 | 0.02 | 0.02 | 88 | 1013.8 |
| 20260905213604 | 74 | 158 | 0.0 | 0.0 | 0.00 | 0.02 | 0.02 | 89 | 1013.8 |
| 20260905213103 | 74 | 68 | 0.0 | 0.0 | 0.00 | 0.02 | 0.02 | 89 | 1013.8 |
| 20260905212604 | 74 | 112 | 0.0 | 0.0 | 0.00 | 0.02 | 0.02 | 88 | 1014.2 |
| 20260905212103 | 74 | 197 | 0.0 | 0.0 | 0.00 | 0.02 | 0.02 | 88 | 1014.2 |
| 20260905211603 | 74 | 189 | 0.0 | 0.0 | 0.00 | 0.02 | 0.02 | 88 | 1014.2 |
| 20260905210605 | 74 | 158 | 0.0 | 1.0 | 0.01 | 0.02 | 0.02 | 88 | 1014.3 |
| 20260905210103 | 74 | 155 | 1.0 | 2.0 | 0.01 | 0.02 | 0.02 | 87 | 1014.3 |
| 20260905205104 | 75 | 180 | 0.0 | 1.0 | 0.01 | 0.02 | 0.02 | 87 | 1014.0 |
| 20260905204603 | 75 | 55 | 0.0 | 0.0 | 0.01 | 0.02 | 0.02 | 87 | 1014.0 |
| 20260905204103 | 76 | 135 | 0.0 | 1.0 | 0.01 | 0.02 | 0.02 | 87 | 1013.8 |
| 20260905203604 | 76 | 145 | 0.0 | 0.0 | 0.01 | 0.02 | 0.02 | 85 | 1013.8 |
| 20260905203103 | 76 | 165 | 0.0 | 0.0 | 0.01 | 0.02 | 0.02 | 84 | 1013.8 |
| 20260905202604 | 76 | 158 | 0.0 | 0.0 | 0.01 | 0.02 | 0.02 | 83 | 1014.0 |
| 20260905202103 | 77 | 225 | 0.0 | 0.0 | 0.02 | 0.02 | 0.02 | 82 | 1014.0 |
| 20260905201603 | 78 | 358 | 1.0 | 3.0 | 0.02 | 0.02 | 0.02 | 82 | 1014.6 |
| 20260905201104 | 78 | 22 | 2.0 | 3.0 | 0.02 | 0.02 | 0.02 | 82 | 1014.6 |
| 20260905200604 | 79 | 103 | 3.0 | 5.0 | 0.01 | 0.01 | 0.01 | 80 | 1014.7 |
| 20260905200103 | 80 | 59 | 2.0 | 3.0 | 0.01 | 0.01 | 0.01 | 78 | 1014.8 |
| 20260905195604 | 80 | 68 | 0.0 | 2.0 | 0.01 | 0.01 | 0.01 | 77 | 1014.8 |
| 20260905195104 | 80 | 114 | 0.0 | 2.0 | 0.01 | 0.01 | 0.01 | 77 | 1014.6 |
| 20260905194604 | 79 | 220 | 0.0 | 0.0 | 0.01 | 0.01 | 0.01 | 76 | 1014.6 |
| 20260905194104 | 80 | 45 | 0.0 | 0.0 | 0.01 | 0.01 | 0.01 | 75 | 1014.3 |
| 20260905193604 | 79 | 45 | 0.0 | 0.0 | 0.01 | 0.01 | 0.01 | 75 | 1014.3 |
| 20260905193103 | 79 | 158 | 0.0 | 0.0 | 0.01 | 0.01 | 0.01 | 72 | 1014.3 |
| 20260905192604 | 80 | 175 | 0.0 | 1.0 | 0.01 | 0.01 | 0.01 | 73 | 1014.5 |
| 20260905192103 | 80 | 80 | 0.0 | 3.0 | 0.00 | 0.00 | 0.00 | 75 | 1014.5 |
| 20260905191604 | 79 | 166 | 2.0 | 3.0 | 0.00 | 0.00 | 0.00 | 79 | 1014.6 |
| 20260905190604 | 78 | 158 | 1.0 | 2.0 | 0.00 | 0.00 | 0.00 | 82 | 1014.7 |
| 20260905185103 | 75 | 22 | 2.0 | 2.0 | 0.00 | 0.00 | 0.00 | 77 | 1014.8 |
| 20260905184603 | 76 | 153 | 2.0 | 5.0 | 0.00 | 0.00 | 0.00 | 73 | 1014.8 |
| 20260905184103 | 78 | 159 | 1.0 | 2.0 | 0.00 | 0.00 | 0.00 | 71 | 1014.9 |
| 20260905183603 | 79 | 46 | 2.0 | 3.0 | 0.00 | 0.00 | 0.00 | 68 | 1014.9 |
| 20260905182603 | 82 | 112 | 1.0 | 7.0 | 0.00 | 0.00 | 0.00 | 61 | 1015.4 |
| 20260905182103 | 82 | 165 | 3.0 | 7.0 | 0.00 | 0.00 | 0.00 | 60 | 1015.4 |
| 20260905181603 | 85 | 44 | 2.0 | 3.0 | 0.00 | 0.00 | 0.00 | 57 | 1015.0 |
| 20260905181103 | 87 | 80 | 2.0 | 5.0 | 0.00 | 0.00 | 0.00 | 52 | 1015.0 |
| 20260905180603 | 89 | 121 | 2.0 | 3.0 | 0.00 | 0.00 | 0.00 | 51 | 1015.1 |
| 20260905180104 | 91 | 151 | 3.0 | 5.0 | 0.00 | 0.00 | 0.00 | 56 | 1015.1 |
| 20260905175603 | 94 | 45 | 2.0 | 3.0 | 0.00 | 0.00 | 0.00 | 58 | 1015.1 |
| 20260905175103 | 92 | 65 | 0.0 | 0.0 | 0.00 | 0.00 | 0.00 | 60 | 1014.8 |
| 20260905174605 | 93 | 194 | 0.0 | 2.0 | 0.00 | 0.00 | 0.00 | 56 | 1014.8 |
| 20260905174103 | 94 | 305 | 2.0 | 2.0 | 0.00 | 0.00 | 0.00 | 56 | 1015.1 |
| 20260905173603 | 95 | 316 | 2.0 | 3.0 | 0.00 | 0.00 | 0.00 | 55 | 1015.1 |
| 20260905173103 | 94 | 333 | 1.0 | 2.0 | 0.00 | 0.00 | 0.00 | 57 | 1015.1 |
| 20260905172604 | 93 | 190 | 0.0 | 1.0 | 0.00 | 0.00 | 0.00 | 59 | 1015.0 |
| 20260905172104 | 93 | 249 | 1.0 | 1.0 | 0.00 | 0.00 | 0.00 | 59 | 1015.0 |
| 20260905171603 | 92 | 225 | 1.0 | 2.0 | 0.00 | 0.00 | 0.00 | 60 | 1015.3 |
| 20260905171103 | 92 | 191 | 0.0 | 3.0 | 0.00 | 0.00 | 0.00 | 60 | 1015.3 |
| 20260905170603 | 92 | 0 | 1.0 | 3.0 | 0.00 | 0.00 | 0.00 | 60 | 1015.4 |
| 20260905170105 | 92 | 189 | 1.0 | 2.0 | 0.00 | 0.00 | 0.00 | 60 | 1015.4 |
| 20260905164603 | 91 | 235 | 0.0 | 1.0 | 0.00 | 0.00 | 0.00 | 64 | 1015.5 |
| 20260905164103 | 90 | 286 | 0.0 | 1.0 | 0.00 | 0.00 | 0.00 | 64 | 1015.6 |
| 20260905163103 | 90 | 14 | 1.0 | 2.0 | 0.00 | 0.00 | 0.00 | 64 | 1015.6 |
| 20260905162603 | 90 | 206 | 1.0 | 1.0 | 0.00 | 0.00 | 0.00 | 63 | 1015.8 |
| 20260905162104 | 90 | 50 | 0.0 | 1.0 | 0.00 | 0.00 | 0.00 | 62 | 1015.8 |
| 20260905161604 | 90 | 47 | 1.0 | 1.0 | 0.00 | 0.00 | 0.00 | 63 | 1015.8 |
| 20260905161103 | 89 | 153 | 0.0 | 1.0 | 0.00 | 0.00 | 0.00 | 65 | 1015.8 |
| 20260905160604 | 89 | 251 | 0.0 | 2.0 | 0.00 | 0.00 | 0.00 | 65 | 1015.9 |
| 20260905155604 | 88 | 133 | 1.0 | 1.0 | 0.00 | 0.00 | 0.00 | 65 | 1016.0 |
| 20260905155104 | 87 | 229 | 1.0 | 1.0 | 0.00 | 0.00 | 0.00 | 65 | 1016.2 |
| 20260905154104 | 88 | 280 | 2.0 | 2.0 | 0.00 | 0.00 | 0.00 | 64 | 1016.3 |
| 20260905153603 | 87 | 6 | 2.0 | 2.0 | 0.00 | 0.00 | 0.00 | 64 | 1016.3 |
| 20260905153103 | 86 | 232 | 0.0 | 2.0 | 0.00 | 0.00 | 0.00 | 69 | 1016.3 |
| 20260905152604 | 85 | 86 | 0.0 | 1.0 | 0.00 | 0.00 | 0.00 | 67 | 1016.3 |
| 20260905152103 | 85 | 171 | 0.0 | 2.0 | 0.00 | 0.00 | 0.00 | 69 | 1016.3 |
| 20260905151603 | 84 | 102 | 0.0 | 0.0 | 0.00 | 0.00 | 0.00 | 71 | 1016.3 |
| 20260905150604 | 84 | 81 | 0.0 | 1.0 | 0.00 | 0.00 | 0.00 | 70 | 1016.3 |
| 20260905150104 | 82 | 95 | 0.0 | 0.0 | 0.00 | 0.00 | 0.00 | 71 | 1016.3 |
| 20260905145604 | 83 | 140 | 0.0 | 0.0 | 0.00 | 0.00 | 0.00 | 70 | 1016.3 |
| 20260905144604 | 82 | 161 | 0.0 | 0.0 | 0.00 | 0.00 | 0.00 | 73 | 1016.4 |
| 20260905143103 | 80 | 45 | 0.0 | 0.0 | 0.00 | 0.00 | 0.00 | 78 | 1016.5 |
| 20260905142604 | 79 | 135 | 0.0 | 0.0 | 0.00 | 0.00 | 0.00 | 79 | 1016.6 |
| 20260905142104 | 78 | 79 | 0.0 | 0.0 | 0.00 | 0.00 | 0.00 | 81 | 1016.6 |
| 20260905141603 | 77 | 180 | 0.0 | 0.0 | 0.00 | 0.00 | 0.00 | 82 | 1016.7 |
| 20260905141104 | 77 | 180 | 0.0 | 0.0 | 0.00 | 0.00 | 0.00 | 82 | 1016.7 |
| 20260905140604 | 77 | 137 | 0.0 | 0.0 | 0.00 | 0.00 | 0.00 | 83 | 1016.8 |
| 20260905140103 | 76 | 180 | 0.0 | 0.0 | 0.00 | 0.00 | 0.00 | 84 | 1016.8 |
| 20260905135603 | 76 | 125 | 0.0 | 0.0 | 0.00 | 0.00 | 0.00 | 84 | 1016.8 |
| 20260905134603 | 75 | 180 | 0.0 | 1.0 | 0.00 | 0.00 | 0.00 | 87 | 1016.8 |
| 20260905134105 | 74 | 193 | 0.0 | 1.0 | 0.00 | 0.00 | 0.00 | 87 | 1016.8 |
| 20260905133603 | 74 | 166 | 0.0 | 1.0 | 0.00 | 0.00 | 0.00 | 87 | 1016.8 |
| 20260905133103 | 73 | 126 | 0.0 | 1.0 | 0.00 | 0.00 | 0.00 | 89 | 1016.8 |
| 20260905132604 | 72 | 193 | 0.0 | 0.0 | 0.00 | 0.00 | 0.00 | 89 | 1017.0 |
| 20260905132104 | 72 | 158 | 0.0 | 0.0 | 0.00 | 0.00 | 0.00 | 89 | 1017.0 |
| 20260905131604 | 71 | 112 | 0.0 | 0.0 | 0.00 | 0.00 | 0.00 | 89 | 1017.0 |
| 20260905131104 | 71 | 158 | 0.0 | 0.0 | 0.00 | 0.00 | 0.00 | 89 | 1017.0 |
| 20260905130603 | 71 | 158 | 0.0 | 0.0 | 0.00 | 0.00 | 0.00 | 89 | 1017.0 |
| 20260905125603 | 70 | 202 | 0.0 | 0.0 | 0.00 | 0.00 | 0.00 | 89 | 1017.1 |
| 20260905125104 | 70 | 167 | 0.0 | 0.0 | 0.00 | 0.00 | 0.00 | 89 | 1016.9 |
| 20260905124604 | 70 | 158 | 0.0 | 0.0 | 0.00 | 0.00 | 0.00 | 89 | 1016.9 |
| 20260905124103 | 69 | 158 | 0.0 | 0.0 | 0.00 | 0.00 | 0.00 | 89 | 1017.0 |
| 20260905123604 | 69 | 151 | 0.0 | 0.0 | 0.00 | 0.00 | 0.00 | 89 | 1017.0 |
| 20260905123104 | 69 | 155 | 0.0 | 0.0 | 0.00 | 0.00 | 0.00 | 89 | 1017.0 |
| 20260905122603 | 69 | 158 | 0.0 | 0.0 | 0.00 | 0.00 | 0.00 | 89 | 1016.8 |
| 20260905122103 | 69 | 153 | 0.0 | 0.0 | 0.00 | 0.00 | 0.00 | 89 | 1016.8 |
| 20260905121103 | 68 | 135 | 0.0 | 0.0 | 0.00 | 0.00 | 0.00 | 89 | 1016.7 |
| 20260905120603 | 68 | 112 | 0.0 | 0.0 | 0.00 | 0.00 | 0.00 | 89 | 1016.6 |
| 20260905120104 | 68 | 154 | 0.0 | 0.0 | 0.00 | 0.00 | 0.00 | 89 | 1016.6 |
| 20260905115604 | 68 | 158 | 0.0 | 0.0 | 0.00 | 0.00 | 0.00 | 89 | 1016.6 |
| 20260905115104 | 68 | 146 | 0.0 | 0.0 | 0.00 | 0.00 | 0.00 | 89 | 1016.5 |
| 20260905114604 | 68 | 112 | 0.0 | 0.0 | 0.00 | 0.00 | 0.00 | 89 | 1016.5 |
| 20260905114103 | 68 | 166 | 0.0 | 0.0 | 0.00 | 0.00 | 0.00 | 89 | 1016.2 |
| 20260905113104 | 68 | 158 | 0.0 | 0.0 | 0.00 | 0.00 | 0.00 | 89 | 1016.2 |
| 20260905112103 | 68 | 135 | 0.0 | 0.0 | 0.00 | 0.00 | 0.00 | 89 | 1016.0 |
| 20260905111603 | 68 | 111 | 0.0 | 0.0 | 0.00 | 0.00 | 0.00 | 89 | 1015.9 |
| 20260905111105 | 68 | 158 | 0.0 | 0.0 | 0.00 | 0.00 | 0.00 | 89 | 1015.9 |
| 20260905110605 | 68 | 158 | 0.0 | 0.0 | 0.00 | 0.00 | 0.00 | 89 | 1015.9 |
| 20260905110104 | 68 | 112 | 0.0 | 0.0 | 0.00 | 0.00 | 0.00 | 89 | 1016.0 |
| 20260905105103 | 68 | 135 | 0.0 | 0.0 | 0.00 | 0.00 | 0.00 | 89 | 1015.9 |
| 20260905104604 | 68 | 159 | 0.0 | 0.0 | 0.00 | 0.00 | 0.00 | 89 | 1015.9 |
| 20260905104104 | 68 | 158 | 0.0 | 0.0 | 0.00 | 0.00 | 0.00 | 89 | 1015.7 |
| 20260905103603 | 68 | 126 | 0.0 | 0.0 | 0.00 | 0.00 | 0.00 | 89 | 1015.7 |
| 20260905103104 | 68 | 180 | 0.0 | 0.0 | 0.00 | 0.00 | 0.00 | 89 | 1015.7 |
| 20260905102603 | 68 | 180 | 0.0 | 0.0 | 0.00 | 0.00 | 0.00 | 89 | 1015.7 |
| 20260905102103 | 68 | 180 | 0.0 | 0.0 | 0.00 | 0.00 | 0.00 | 89 | 1015.7 |
| 20260905101604 | 68 | 180 | 0.0 | 0.0 | 0.00 | 0.00 | 0.00 | 89 | 1015.7 |
| 20260905101103 | 68 | 100 | 0.0 | 0.0 | 0.00 | 0.00 | 0.00 | 89 | 1015.7 |